Time,TemperatureF,DewpointF,PressureIn,WindDirection,WindDirectionDegrees,WindSpeedMPH,WindSpeedGustMPH,Humidity,HourlyPrecipIn,Conditions,Clouds,dailyrainin,SolarRadiationWatts/m^2,SoftwareType,DateUTC
2013-05-21 00:02:00,63.0,13.0,-100.00,WNW,286,18.0,28.0,14,-99.99,,,-99.99,0.000000,,2013-05-21 06:02:00,
2013-05-21 00:12:00,61.0,13.0,-100.00,WNW,283,13.0,20.0,15,-99.99,,,-99.99,0.000000,,2013-05-21 06:12:00,
2013-05-21 00:21:00,61.0,14.0,-100.00,WNW,285,14.0,21.0,15,-99.99,,,-99.99,0.000000,,2013-05-21 06:21:00,
2013-05-21 00:32:00,61.0,14.0,-100.00,WNW,285,14.0,21.0,15,-99.99,,,-99.99,0.000000,,2013-05-21 06:32:00,
2013-05-21 00:42:00,62.0,15.0,-100.00,WNW,287,17.0,26.0,15,-99.99,,,-99.99,0.000000,,2013-05-21 06:42:00,
2013-05-21 00:52:00,61.0,15.0,-100.00,West,276,18.0,25.0,16,-99.99,,,-99.99,0.000000,,2013-05-21 06:52:00,
2013-05-21 01:01:00,61.0,15.0,-100.00,West,276,18.0,25.0,16,-99.99,,,-99.99,0.000000,,2013-05-21 07:01:00,
2013-05-21 01:11:00,59.0,16.0,-100.00,West,269,14.0,19.0,17,-99.99,,,-99.99,0.000000,,2013-05-21 07:11:00,
2013-05-21 01:22:00,58.0,16.0,-100.00,West,267,12.0,16.0,18,-99.99,,,-99.99,0.000000,,2013-05-21 07:22:00,
2013-05-21 01:31:00,58.0,16.0,-100.00,West,267,12.0,16.0,18,-99.99,,,-99.99,0.000000,,2013-05-21 07:31:00,
2013-05-21 01:41:00,57.0,15.0,-100.00,West,265,8.0,15.0,18,-99.99,,,-99.99,0.000000,,2013-05-21 07:41:00,
2013-05-21 01:52:00,57.0,15.0,-100.00,West,265,8.0,15.0,18,-99.99,,,-99.99,0.000000,,2013-05-21 07:52:00,
2013-05-21 02:02:00,57.0,15.0,-100.00,West,265,8.0,15.0,18,-99.99,,,-99.99,0.000000,,2013-05-21 08:02:00,
2013-05-21 02:11:00,57.0,15.0,-100.00,West,265,8.0,15.0,18,-99.99,,,-99.99,0.000000,,2013-05-21 08:11:00,
2013-05-21 07:41:00,57.0,25.0,-100.00,WNW,289,7.0,14.0,28,-99.99,,,-99.99,190.369995,,2013-05-21 13:41:00,
2013-05-21 07:52:00,57.0,25.0,-100.00,WNW,289,7.0,14.0,28,-99.99,,,-99.99,190.369995,,2013-05-21 13:52:00,
2013-05-21 08:01:00,57.0,25.0,-100.00,WNW,294,11.0,19.0,28,-99.99,,,-99.99,242.669998,,2013-05-21 14:01:00,
2013-05-21 08:11:00,57.0,25.0,-100.00,WNW,289,10.0,14.0,28,-99.99,,,-99.99,297.059998,,2013-05-21 14:11:00,
2013-05-21 08:21:00,57.0,25.0,-100.00,WNW,289,10.0,14.0,28,-99.99,,,-99.99,297.059998,,2013-05-21 14:21:00,
2013-05-21 08:32:00,58.0,25.0,-100.00,WNW,290,10.0,17.0,28,-99.99,,,-99.99,352.850006,,2013-05-21 14:32:00,
2013-05-21 08:41:00,59.0,25.0,-100.00,WNW,295,13.0,17.0,27,-99.99,,,-99.99,407.940002,,2013-05-21 14:41:00,
2013-05-21 08:52:00,59.0,25.0,-100.00,WNW,295,13.0,17.0,27,-99.99,,,-99.99,407.940002,,2013-05-21 14:52:00,
2013-05-21 09:01:00,59.0,25.0,-100.00,WNW,295,13.0,17.0,27,-99.99,,,-99.99,407.940002,,2013-05-21 15:01:00,
2013-05-21 09:11:00,61.0,26.0,-100.00,WNW,295,13.0,20.0,26,-99.99,,,-99.99,516.719971,,2013-05-21 15:11:00,
2013-05-21 09:21:00,61.0,26.0,-100.00,WNW,295,13.0,20.0,26,-99.99,,,-99.99,516.719971,,2013-05-21 15:21:00,
2013-05-21 09:33:00,61.0,26.0,-100.00,WNW,295,13.0,20.0,26,-99.99,,,-99.99,516.719971,,2013-05-21 15:33:00,
2013-05-21 09:42:00,62.0,26.0,-100.00,WNW,286,13.0,21.0,25,-99.99,,,-99.99,621.320007,,2013-05-21 15:42:00,
2013-05-21 09:53:00,62.0,26.0,-100.00,WNW,286,13.0,21.0,25,-99.99,,,-99.99,621.320007,,2013-05-21 15:53:00,
2013-05-21 10:03:00,62.0,26.0,-100.00,WNW,286,13.0,21.0,25,-99.99,,,-99.99,621.320007,,2013-05-21 16:03:00,
2013-05-21 10:12:00,63.0,26.0,-100.00,WNW,284,16.0,24.0,24,-99.99,,,-99.99,721.039978,,2013-05-21 16:12:00,
2013-05-21 10:23:00,63.0,26.0,-100.00,WNW,284,16.0,24.0,24,-99.99,,,-99.99,721.039978,,2013-05-21 16:23:00,
2013-05-21 10:32:00,63.0,26.0,-100.00,WNW,289,16.0,25.0,24,-99.99,,,-99.99,765.669983,,2013-05-21 16:32:00,
2013-05-21 10:42:00,64.0,26.0,-100.00,WNW,292,13.0,20.0,23,-99.99,,,-99.99,808.210022,,2013-05-21 16:42:00,
2013-05-21 10:53:00,64.0,26.0,-100.00,WNW,292,13.0,20.0,23,-99.99,,,-99.99,808.210022,,2013-05-21 16:53:00,
2013-05-21 11:02:00,64.0,26.0,-100.00,WNW,292,13.0,20.0,23,-99.99,,,-99.99,808.210022,,2013-05-21 17:02:00,
2013-05-21 11:12:00,65.0,25.0,-100.00,WNW,285,12.0,18.0,21,-99.99,,,-99.99,882.130005,,2013-05-21 17:12:00,
2013-05-21 11:23:00,65.0,25.0,-100.00,WNW,285,12.0,18.0,21,-99.99,,,-99.99,882.130005,,2013-05-21 17:23:00,
2013-05-21 11:32:00,66.0,25.0,-100.00,West,267,11.0,17.0,20,-99.99,,,-99.99,915.599976,,2013-05-21 17:32:00,
2013-05-21 11:43:00,66.0,25.0,-100.00,West,267,11.0,17.0,20,-99.99,,,-99.99,915.599976,,2013-05-21 17:43:00,
2013-05-21 11:52:00,68.0,24.0,-100.00,West,271,17.0,26.0,19,-99.99,,,-99.99,967.200012,,2013-05-21 17:52:00,
2013-05-21 12:01:00,68.0,24.0,-100.00,West,271,17.0,26.0,19,-99.99,,,-99.99,967.200012,,2013-05-21 18:01:00,
2013-05-21 12:12:00,68.0,24.0,-100.00,West,278,15.0,28.0,18,-99.99,,,-99.99,988.119995,,2013-05-21 18:12:00,
2013-05-21 12:22:00,69.0,23.0,-100.00,West,275,15.0,23.0,17,-99.99,,,-99.99,1006.950012,,2013-05-21 18:22:00,
2013-05-21 12:32:00,69.0,23.0,-100.00,West,275,15.0,23.0,17,-99.99,,,-99.99,1006.950012,,2013-05-21 18:32:00,
2013-05-21 12:42:00,69.0,21.0,-100.00,West,270,15.0,25.0,16,-99.99,,,-99.99,1017.409973,,2013-05-21 18:42:00,
2013-05-21 12:52:00,70.0,21.0,-100.00,WNW,287,17.0,31.0,15,-99.99,,,-99.99,1025.079956,,2013-05-21 18:52:00,
2013-05-21 13:01:00,70.0,21.0,-100.00,WNW,287,17.0,31.0,15,-99.99,,,-99.99,1025.079956,,2013-05-21 19:01:00,
2013-05-21 13:11:00,71.0,20.0,-100.00,West,270,16.0,27.0,14,-99.99,,,-99.99,1029.260010,,2013-05-21 19:11:00,
2013-05-21 13:21:00,71.0,20.0,-100.00,West,266,19.0,28.0,14,-99.99,,,-99.99,1032.050049,,2013-05-21 19:21:00,
2013-05-21 13:32:00,71.0,20.0,-100.00,West,266,19.0,28.0,14,-99.99,,,-99.99,1032.050049,,2013-05-21 19:32:00,
2013-05-21 13:42:00,72.0,20.0,-100.00,West,277,18.0,31.0,14,-99.99,,,-99.99,1030.660034,,2013-05-21 19:42:00,
2013-05-21 13:52:00,72.0,20.0,-100.00,West,267,20.0,32.0,13,-99.99,,,-99.99,1026.469971,,2013-05-21 19:52:00,
2013-05-21 14:03:00,72.0,20.0,-100.00,West,267,20.0,32.0,13,-99.99,,,-99.99,1026.469971,,2013-05-21 20:03:00,
2013-05-21 14:11:00,72.0,20.0,-100.00,West,272,18.0,33.0,13,-99.99,,,-99.99,1016.710022,,2013-05-21 20:11:00,
2013-05-21 14:22:00,73.0,20.0,-100.00,West,279,18.0,28.0,13,-99.99,,,-99.99,1002.070007,,2013-05-21 20:22:00,
2013-05-21 14:32:00,73.0,19.0,-100.00,West,259,21.0,32.0,12,-99.99,,,-99.99,967.900024,,2013-05-21 20:32:00,
2013-05-21 14:42:00,73.0,19.0,-100.00,West,259,21.0,32.0,12,-99.99,,,-99.99,967.900024,,2013-05-21 20:42:00,
2013-05-21 14:52:00,74.0,19.0,-100.00,WNW,287,19.0,31.0,12,-99.99,,,-99.99,972.780029,,2013-05-21 20:52:00,
2013-05-21 15:02:00,74.0,19.0,-100.00,WNW,287,19.0,31.0,12,-99.99,,,-99.99,972.780029,,2013-05-21 21:02:00,
2013-05-21 15:11:00,74.0,19.0,-100.00,West,259,19.0,34.0,12,-99.99,,,-99.99,940.700012,,2013-05-21 21:11:00,
2013-05-21 15:21:00,74.0,19.0,-100.00,West,266,18.0,30.0,12,-99.99,,,-99.99,923.270020,,2013-05-21 21:21:00,
2013-05-21 15:33:00,74.0,19.0,-100.00,West,266,18.0,30.0,12,-99.99,,,-99.99,923.270020,,2013-05-21 21:33:00,
2013-05-21 15:43:00,76.0,18.0,-100.00,West,279,22.0,31.0,11,-99.99,,,-99.99,895.380005,,2013-05-21 21:43:00,
2013-05-21 15:54:00,76.0,19.0,-100.00,WSW,256,19.0,29.0,11,-99.99,,,-99.99,861.900024,,2013-05-21 21:54:00,
2013-05-21 16:02:00,76.0,19.0,-100.00,WSW,256,19.0,29.0,11,-99.99,,,-99.99,861.900024,,2013-05-21 22:02:00,
2013-05-21 16:12:00,74.0,18.0,-100.00,WSW,238,18.0,27.0,12,-99.99,,,-99.99,826.340027,,2013-05-21 22:12:00,
2013-05-21 16:22:00,75.0,18.0,-100.00,WSW,241,16.0,27.0,11,-99.99,,,-99.99,787.289978,,2013-05-21 22:22:00,
2013-05-21 16:33:00,76.0,18.0,-100.00,WSW,246,22.0,35.0,11,-99.99,,,-99.99,662.469971,,2013-05-21 22:33:00,
2013-05-21 16:42:00,76.0,18.0,-100.00,WSW,246,22.0,35.0,11,-99.99,,,-99.99,662.469971,,2013-05-21 22:42:00,
2013-05-21 16:53:00,76.0,18.0,-100.00,WSW,258,16.0,35.0,11,-99.99,,,-99.99,622.020020,,2013-05-21 22:53:00,
2013-05-21 17:02:00,76.0,18.0,-100.00,WSW,258,16.0,35.0,11,-99.99,,,-99.99,622.020020,,2013-05-21 23:02:00,
2013-05-21 17:12:00,76.0,18.0,-100.00,West,265,23.0,36.0,10,-99.99,,,-99.99,167.360001,,2013-05-21 23:12:00,
2013-05-21 17:22:00,77.0,18.0,-100.00,WSW,253,19.0,32.0,10,-99.99,,,-99.99,361.920013,,2013-05-21 23:22:00,
2013-05-21 17:32:00,77.0,18.0,-100.00,WSW,253,19.0,32.0,10,-99.99,,,-99.99,361.920013,,2013-05-21 23:32:00,
2013-05-21 17:42:00,77.0,17.0,-100.00,West,259,26.0,36.0,10,-99.99,,,-99.99,48.119999,,2013-05-21 23:42:00,
2013-05-21 17:52:00,76.0,17.0,-100.00,WSW,253,20.0,32.0,10,-99.99,,,-99.99,194.559998,,2013-05-21 23:52:00,
2013-05-21 18:01:00,76.0,17.0,-100.00,WSW,253,20.0,32.0,10,-99.99,,,-99.99,194.559998,,2013-05-22 00:01:00,
2013-05-21 18:11:00,77.0,16.0,-100.00,WSW,253,24.0,38.0,9,-99.99,,,-99.99,249.649994,,2013-05-22 00:11:00,
2013-05-21 18:21:00,76.0,14.0,-100.00,WSW,248,21.0,34.0,9,-99.99,,,-99.99,396.089996,,2013-05-22 00:21:00,
2013-05-21 18:32:00,76.0,14.0,-100.00,WSW,248,21.0,34.0,9,-99.99,,,-99.99,396.089996,,2013-05-22 00:32:00,
2013-05-21 18:41:00,76.0,14.0,-100.00,WSW,248,21.0,34.0,9,-99.99,,,-99.99,396.089996,,2013-05-22 00:41:00,
2013-05-21 18:52:00,76.0,12.0,-100.00,West,264,25.0,38.0,8,-99.99,,,-99.99,37.660000,,2013-05-22 00:52:00,
2013-05-21 19:01:00,76.0,12.0,-100.00,West,264,25.0,38.0,8,-99.99,,,-99.99,37.660000,,2013-05-22 01:01:00,
2013-05-21 19:11:00,76.0,11.0,-100.00,WSW,255,25.0,35.0,8,-99.99,,,-99.99,27.200001,,2013-05-22 01:11:00,
2013-05-21 19:21:00,76.0,11.0,-100.00,WSW,249,24.0,33.0,8,-99.99,,,-99.99,101.809998,,2013-05-22 01:21:00,
2013-05-21 19:32:00,75.0,10.0,-100.00,WSW,250,20.0,32.0,8,-99.99,,,-99.99,140.160004,,2013-05-22 01:32:00,
2013-05-21 19:41:00,75.0,10.0,-100.00,WSW,250,20.0,32.0,8,-99.99,,,-99.99,140.160004,,2013-05-22 01:41:00,
2013-05-21 19:52:00,75.0,9.0,-100.00,WSW,248,22.0,36.0,7,-99.99,,,-99.99,80.889999,,2013-05-22 01:52:00,
2013-05-21 20:01:00,75.0,9.0,-100.00,WSW,248,22.0,36.0,7,-99.99,,,-99.99,80.889999,,2013-05-22 02:01:00,
2013-05-21 20:11:00,75.0,6.0,-100.00,WSW,251,26.0,33.0,6,-99.99,,,-99.99,32.080002,,2013-05-22 02:11:00,
2013-05-21 20:21:00,74.0,7.0,-100.00,WSW,252,23.0,30.0,7,-99.99,,,-99.99,9.760000,,2013-05-22 02:21:00,
2013-05-21 20:32:00,73.0,5.0,-100.00,WSW,254,21.0,27.0,6,-99.99,,,-99.99,2.790000,,2013-05-22 02:32:00,
2013-05-21 20:42:00,73.0,5.0,-100.00,WSW,254,21.0,27.0,6,-99.99,,,-99.99,2.790000,,2013-05-22 02:42:00,
2013-05-21 20:52:00,72.0,5.0,-100.00,WSW,258,20.0,27.0,7,-99.99,,,-99.99,0.000000,,2013-05-22 02:52:00,
2013-05-21 21:01:00,72.0,5.0,-100.00,WSW,258,20.0,27.0,7,-99.99,,,-99.99,0.000000,,2013-05-22 03:01:00,
2013-05-21 21:11:00,72.0,6.0,-100.00,WSW,244,16.0,23.0,7,-99.99,,,-99.99,0.000000,,2013-05-22 03:11:00,
2013-05-21 21:21:00,73.0,8.0,-100.00,WSW,245,20.0,28.0,8,-99.99,,,-99.99,0.000000,,2013-05-22 03:21:00,
2013-05-21 21:33:00,73.0,8.0,-100.00,WSW,245,20.0,28.0,8,-99.99,,,-99.99,0.000000,,2013-05-22 03:33:00,
2013-05-21 21:43:00,73.0,7.0,-100.00,WSW,248,25.0,30.0,7,-99.99,,,-99.99,0.000000,,2013-05-22 03:43:00,
2013-05-21 21:53:00,72.0,6.0,-100.00,WSW,249,24.0,30.0,7,-99.99,,,-99.99,0.000000,,2013-05-22 03:53:00,
2013-05-21 22:03:00,72.0,6.0,-100.00,WSW,249,24.0,30.0,7,-99.99,,,-99.99,0.000000,,2013-05-22 04:03:00,
2013-05-21 22:13:00,72.0,6.0,-100.00,WSW,250,24.0,30.0,7,-99.99,,,-99.99,0.000000,,2013-05-22 04:13:00,
2013-05-21 22:23:00,72.0,5.0,-100.00,WSW,252,24.0,28.0,7,-99.99,,,-99.99,0.000000,,2013-05-22 04:23:00,
2013-05-21 22:33:00,72.0,5.0,-100.00,WSW,252,24.0,28.0,7,-99.99,,,-99.99,0.000000,,2013-05-22 04:33:00,
2013-05-21 22:43:00,72.0,5.0,-100.00,WSW,252,24.0,32.0,7,-99.99,,,-99.99,0.000000,,2013-05-22 04:43:00,
2013-05-21 22:53:00,72.0,5.0,-100.00,WSW,249,25.0,32.0,7,-99.99,,,-99.99,0.000000,,2013-05-22 04:53:00,
2013-05-21 23:02:00,72.0,5.0,-100.00,WSW,249,25.0,32.0,7,-99.99,,,-99.99,0.000000,,2013-05-22 05:02:00,
2013-05-21 23:12:00,72.0,5.0,-100.00,WSW,246,26.0,32.0,7,-99.99,,,-99.99,0.000000,,2013-05-22 05:12:00,
2013-05-21 23:21:00,72.0,6.0,-100.00,WSW,245,25.0,32.0,7,-99.99,,,-99.99,0.000000,,2013-05-22 05:21:00,
2013-05-21 23:32:00,72.0,7.0,-100.00,WSW,247,26.0,33.0,7,-99.99,,,-99.99,0.000000,,2013-05-22 05:32:00,
2013-05-21 23:42:00,72.0,7.0,-100.00,WSW,247,26.0,33.0,7,-99.99,,,-99.99,0.000000,,2013-05-22 05:42:00,
2013-05-21 23:52:00,72.0,7.0,-100.00,WSW,246,27.0,34.0,7,-99.99,,,-99.99,0.000000,,2013-05-22 05:52:00,